• Join FlightAware (Why Join?)
  • Login
  • US Flag GB Flag 
15:58 EST


 

Airport Tracker/Info


-or-


 

Live Flight TrackerFlight Track Log ✈ SWA315 ✈ 19-Apr-2013 ✈ KDEN - KIND

Flight Track Log - Related Links

Times and Time Zones

All times are in EDT time to prevent confusion due to time zone crossing. See the SWA315 flight status page for this flight to view local times or setup timezone preferences in your user account.

Time Position Orientation Groundspeed Altitude Reporting Facility
EDT Latitude Longitude Course Direction KTS MPH feet Rate Location/Type
13:04 39.9167 -104.6667 57° Northeast 203 234 6,900  Level Denver TRACON
13:05 39.9500 -104.6000 57° Northeast 283 326 8,500 1,550 Climbing Denver TRACON
13:06 39.9500 -104.4833 90° East 308 354 10,000 905 Climbing Denver TRACON
13:07 39.9500 -104.3500 90° East 334 384 10,400 1,394 Climbing Denver TRACON
13:08 39.9314 -104.2931 113° Southeast 332 382 12,300 3,158 Climbing Denver Center
13:09 39.9053 -104.1539 104° East 367 422 15,400 2,832 Climbing Denver Center
13:10 39.8858 -104.0144 100° East 390 449 18,200 2,736 Climbing Denver Center
13:11 39.8728 -103.8542 96° East 413 475 21,100 2,516 Climbing Denver Center
13:12 39.8858 -103.7086 83° East 421 484 23,400 2,274 Climbing Denver Center
13:13 39.9039 -103.5556 81° East 422 486 25,800 2,081 Climbing Denver Center
13:14 39.9153 -103.3889 85° East 455 524 27,700 1,790 Climbing Denver Center
13:15 39.9239 -103.2192 86° East 464 534 29,500 1,839 Climbing Denver Center
13:16 39.9344 -103.0158 86° East 478 550 31,500 1,935 Climbing Denver Center
13:17 39.9419 -102.8406 87° East 480 552 33,500 1,210 Climbing Denver Center
13:18 39.9508 -102.6683 86° East 481 554 34,000 242 Climbing Denver Center
13:19 39.9597 -102.4731 87° East 484 557 34,000 435 Level Denver Center
13:20 39.9669 -102.3069 87° East 483 556 34,900 1,113 Climbing Denver Center
13:21 39.9739 -102.1408 87° East 481 554 36,300 1,258 Climbing Denver Center
13:22 39.9819 -101.9483 87° East 480 552 37,500 968 Climbing Denver Center
13:23 39.9892 -101.7806 87° East 485 558 38,300 581 Climbing Denver Center
13:24 39.9969 -101.5811 87° East 494 568 38,700 339 Climbing Denver Center
13:25 40.0036 -101.4069 87° East 502 578 39,000 145 Climbing Denver Center
13:26 40.0108 -101.2061 87° East 500 575 39,000  Level Denver Center
13:27 40.0164 -101.0336 88° East 501 577 39,000  Level Denver Center
13:28 40.0222 -100.8333 88° East 498 573 39,000  Level Denver Center
13:29 40.0289 -100.6628 87° East 496 571 39,000  Level Denver Center
13:30 40.0339 -100.4653 88° East 492 566 39,000  Level Denver Center
13:31 40.0394 -100.2967 87° East 490 564 39,000  Level Denver Center
13:32 40.0439 -100.0981 88° East 493 567 39,000  Level Denver Center
13:34 40.0483 -99.9289 88° East 491 565 39,000  Level Denver Center
13:35 40.0531 -99.7314 88° East 494 568 39,000  Level Denver Center
13:36 40.0567 -99.5517 88° East 497 572 39,000  Level Denver Center
13:37 40.0608 -99.3700 88° East 500 575 39,000  Level Denver Center
13:38 40.0636 -99.1892 89° East 502 578 39,000  Level Denver Center
13:39 40.0667 -99.0056 89° East 507 583 39,000  Level Denver Center
13:40 40.0697 -98.8242 89° East 505 581 39,000  Level Minneapolis Center
13:41 40.0725 -98.6058 89° East 505 581 39,000  Level Minneapolis Center
13:42 40.0744 -98.4219 89° East 506 582 39,000  Level Minneapolis Center
13:43 40.0767 -98.2367 89° East 510 587 39,000  Level Minneapolis Center
13:44 40.0775 -98.0525 90° East 510 587 39,000  Level Minneapolis Center
13:45 40.0783 -97.8697 90° East 508 585 39,000  Level Minneapolis Center
13:46 40.0800 -97.6911 89° East 499 574 39,000  Level Minneapolis Center
13:47 40.0808 -97.5106 90° East 497 572 39,000  Level Minneapolis Center
13:48 40.0811 -97.2964 90° East 495 570 39,000  Level Minneapolis Center
13:49 40.0814 -97.1125 90° East 497 572 39,000  Level Minneapolis Center
13:50 40.0808 -96.9331 90° East 497 572 39,000  Level Minneapolis Center
13:51 40.0797 -96.7531 90° East 497 572 39,000  Level Minneapolis Center
13:52 40.0794 -96.5739 90° East 498 573 39,000  Level Minneapolis Center
13:53 40.0786 -96.4297 90° East 497 572 39,000  Level Minneapolis Center
13:54 40.0772 -96.2094 90° East 500 575 39,000  Level Minneapolis Center
13:56 40.0731 -95.8378 91° East 509 586 39,000  Level Kansas City Center
13:57 40.0706 -95.6578 91° East 515 593 39,000  Level Kansas City Center
13:58 40.0678 -95.4767 91° East 519 597 39,000  Level Kansas City Center
13:59 40.0661 -95.2417 90° East 521 600 39,000  Level Minneapolis Center
14:00 40.0614 -95.0831 92° East 519 597 39,000  Level Kansas City Center
14:01 40.0578 -94.8778 91° East 509 586 39,000  Level Kansas City Center
14:02 40.0536 -94.7006 92° East 507 583 39,000  Level Kansas City Center
14:03 40.0500 -94.4950 91° East 506 582 39,000  Level Kansas City Center
14:04 40.0453 -94.3183 92° East 508 585 39,000  Level Kansas City Center
14:05 40.0403 -94.1131 92° East 506 582 39,000  Level Kansas City Center
14:06 40.0344 -93.9303 92° East 513 590 39,000  Level Kansas City Center
14:07 40.0308 -93.7506 91° East 505 581 39,000  Level Kansas City Center
14:08 40.0236 -93.5714 93° East 499 574 39,000  Level Kansas City Center
14:09 40.0197 -93.3919 92° East 500 575 39,000  Level Kansas City Center
14:10 40.0117 -93.1761 93° East 501 577 39,000  Level Kansas City Center
14:12 40.0075 -92.9983 92° East 498 573 39,000  Level Kansas City Center
14:13 39.9994 -92.8189 93° East 501 577 39,000  Level Kansas City Center
14:14 39.9933 -92.6411 93° East 501 577 39,000  Level Kansas City Center
14:15 39.9847 -92.4283 93° East 500 575 39,000  Level Kansas City Center
14:16 39.9772 -92.2506 93° East 500 575 39,000  Level Kansas City Center
14:17 39.9694 -92.0708 93° East 502 578 39,000  Level Kansas City Center
14:18 39.9608 -91.8911 94° East 503 579 39,000  Level Kansas City Center
14:19 39.9528 -91.7092 93° East 506 582 39,000  Level Kansas City Center
14:20 39.9406 -91.4928 94° East 505 581 39,000  Level Kansas City Center
14:21 39.9333 -91.3111 93° East 505 581 39,000 -148 Level Kansas City Center
14:22 39.9214 -91.1297 95° East 506 582 38,700 -624 Descending Kansas City Center
14:23 39.9147 -90.9461 93° East 506 582 37,700 -912 Descending Kansas City Center
14:24 39.9053 -90.7611 94° East 511 588 36,800 -1,016 Descending Kansas City Center
14:25 39.8922 -90.5375 94° East 516 594 35,600 -871 Descending Kansas City Center
14:26 39.8811 -90.3539 94° East 514 592 35,000 -288 Descending Kansas City Center
14:27 39.8703 -90.1681 94° East 515 593 35,000  Level Kansas City Center
14:28 39.8589 -89.9842 95° East 515 593 35,000  Level Kansas City Center
14:29 39.8469 -89.7994 95° East 515 593 35,000 -192 Level Kansas City Center
14:30 39.8389 -89.6156 93° East 515 593 34,600 -720 Descending Kansas City Center
14:31 39.8417 -89.3911 89° East 517 595 33,500 -968 Descending Kansas City Center
14:32 39.8417 -89.2044 90° East 518 596 32,600 -912 Descending Kansas City Center
14:33 39.8419 -89.0217 90° East 513 590 31,600 -1,024 Descending Kansas City Center
14:34 39.8419 -88.8433 90° East 500 575 30,500 -1,008 Descending Kansas City Center
14:35 39.8411 -88.6694 90° East 489 563 29,500 -1,645 Descending Kansas City Center
14:36 39.8431 -88.4633 89° East 480 552 27,100 -2,213 Descending Kansas City Center
14:37 39.8444 -88.2975 89° East 468 539 25,000 -1,488 Descending Kansas City Center
14:38 39.8419 -88.1314 91° East 442 509 24,000 -682 Descending Kansas City Center
14:39 39.8408 -88.0683 91° East 453 521 24,000 -483 Level Indianapolis Center
14:40 39.8386 -87.9125 91° East 441 507 23,300 -829 Descending Indianapolis Center
14:41 39.8367 -87.7586 91° East 434 499 22,300 -1,463 Descending Indianapolis Center
14:42 39.8350 -87.6064 91° East 428 493 20,300 -1,935 Descending Indianapolis Center
14:43 39.8339 -87.4567 91° East 422 486 18,300 -2,032 Descending Indianapolis Center
14:44 39.8319 -87.3106 91° East 414 476 16,100 -1,984 Descending Indianapolis Center
14:45 39.8294 -87.1667 91° East 407 468 14,200 -2,000 Descending Indianapolis Center
14:46 39.8264 -86.9992 91° East 398 458 12,000 -1,073 Descending Indianapolis Center
14:47 39.8239 -86.8683 91° East 386 444 12,000  Level Indianapolis Center
14:48 39.8214 -86.7686 92° East 337 388 12,000  Level Indianapolis Center
14:49 39.8208 -86.6725 90° East 294 338 12,000 -774 Level Indianapolis Center
14:50 39.8189 -86.5686 91° East 282 325 10,400 -1,854 Descending Indianapolis Center
14:51 39.8164 -86.4525 92° East 291 335 8,200 -2,041 Descending Indianapolis Center
14:52 39.8167 -86.3667 90° East 317 365 7,100 -1,733 Descending Indianapolis TRACON
14:53 39.8500 -86.2833 62° Northeast 303 349 5,600 -1,444 Descending Indianapolis TRACON
14:54 39.8833 -86.2000 62° Northeast 285 328 4,500 -889 Descending Indianapolis TRACON
14:54 39.8500 -86.1667 142° Southeast 209 241 4,000 -842 Descending Indianapolis TRACON
14:55 39.8000 -86.2000 207° Southwest 170 196 2,900 -1,000 Descending Indianapolis TRACON
14:56 39.7667 -86.2333 218° Southwest 156 180 2,000 -800 Descending Indianapolis TRACON
14:57 39.7500 -86.2667 237° Southwest 118 136 1,300 -700 Descending Indianapolis TRACON